{"data":{"norad_id":53551,"epoch":"2026-05-25T04:31:17.148288Z","epoch_age_seconds":59008,"freshness":"FRESH","line1":"1 53551U 22101AA  26145.18839292  .00000287  00000+0  36129-4 0  9996","line2":"2 53551  53.2141  80.7031 0001502  88.3462 271.7702 15.08834866208516","mean_motion":15.08834866,"eccentricity":0.0001502,"inclination_deg":53.2141,"raan_deg":80.7031,"arg_perigee_deg":88.3462,"mean_anomaly_deg":271.7702,"bstar":3.6129e-5,"rev_number":20851,"period_min":95.437879416024,"perigee_km":538.72001360126,"apogee_km":540.79814958417,"semimajor_km":6917.8960815927,"source":"CELESTRAK","updated_at":"2026-05-25T13:38:17.444170Z"}}